Flag for Poland Weather past 2 weeks in Szczecin, Poland

Now
72 °F

Clear.


Feels Like: 71 °F
Forecast: 62 / 78 °F
Wind: No wind

Location: Szczecin Airport

Current Time: Jul 30, 2014 at 9:39:33 AM

Latest Report: Jul 30, 2014 at 9:00 AM


Visibility: 5 mi

Pressure: 29.71 "Hg

Humidity: 83%

Dew point: 66 °F

Location of SzczecinLocation

Historic Weather in Szczecin — Graph

°F

Szczecin temperature yesterday

Maximum temperature yesterday: 90 °F (at 3:00 PM)
Minimum temperature yesterday: 64 °F (at 4:00 AM)
Average temperature yesterday: 74 °F

Past Weeks' High & Low Weather Summary

 TemperatureHumidityPressure
High90 °F (Jul 29, 3:00 PM)100% (Jul 23, 5:00 AM)30.18 "Hg (Jul 23, 5:00 AM)
Low55 °F (Jul 17, 5:30 AM)31% (Jul 21, 3:00 PM)29.68 "Hg (Jul 30, 4:00 AM)
Average72 °F68%29.99 "Hg
* Reported Jul 15 8:00 AM — Jul 30 8:30 AM, Szczecin, Weather by CustomWeather, © 2014

Note: Actual official high and low records may vary slightly from our data, if they occured in-between our weather recording intervals... More about our weather records

Advertising

Szczecin weather history for previous 24 hours

 ConditionsComfort  
Time TempWeatherWind HumidityBarometerVisibility
8:30 AM
Jul 30
70 °FClear.No wind88%29.71 "Hg5 mi
8:00 AM68 °FClear.No wind94%29.71 "Hg4 mi
7:30 AM66 °FFog.No wind94%29.68 "Hg2 mi
7:00 AM64 °FFog.No wind100%29.71 "Hg3 mi
6:30 AM64 °FFog.No wind94%29.71 "Hg3 mi
6:00 AM64 °FFog.No wind94%29.71 "Hg3 mi
5:30 AM63 °FFog.No wind100%29.71 "Hg3 mi
5:00 AM64 °FFog.No wind94%29.68 "Hg2 mi
4:30 AM64 °FFog.2 mph94%29.68 "Hg2 mi
4:00 AM64 °FFog.No wind100%29.68 "Hg2 mi
3:30 AM64 °FFog.3 mph100%29.71 "Hg3 mi
3:00 AM66 °FClear.No wind94%29.71 "Hg5 mi
2:30 AM68 °FClear.2 mph88%29.71 "Hg10 mi
2:00 AM68 °FClear.5 mph88%29.71 "Hg10 mi
1:30 AM68 °FClear.5 mph88%29.71 "Hg10 mi
1:00 AM68 °FClear.3 mph94%29.71 "Hg10 mi
12:30 AM68 °FClear.5 mph94%29.71 "Hg10 mi
12:00 AM68 °FClear.3 mph94%29.71 "Hg10 mi
11:30 PM
Jul 29
70 °FClear.2 mph88%29.71 "Hg10 mi
11:00 PM70 °FClear.2 mph88%29.71 "Hg10 mi
10:30 PM70 °FClear.No wind88%29.71 "Hg10 mi
10:00 PM70 °FSunny.No wind88%29.71 "Hg10 mi
9:30 PM72 °FSunny.5 mph88%29.71 "Hg10 mi
9:00 PM72 °FSunny.5 mph88%29.71 "Hg10 mi
8:30 PM73 °FPassing clouds.6 mph89%29.71 "HgN/A
8:00 PM72 °FPassing clouds.7 mph94%29.71 "HgN/A
7:30 PM72 °FPassing clouds.8 mph88%29.71 "HgN/A
7:00 PM75 °FThunderstorms. Partly sunny.10 mph65%29.71 "HgN/A
6:30 PM77 °FThunderstorms. Partly sunny.8 mph69%29.71 "HgN/A
6:00 PM81 °FThunderstorms. Partly sunny.8 mph62%29.71 "HgN/A
5:30 PM82 °FSunny.9 mph62%29.71 "Hg10 mi
5:00 PM86 °FScattered clouds.5 mph84%29.71 "HgN/A
4:30 PM84 °FPassing clouds.6 mph45%29.71 "HgN/A
4:00 PM84 °FScattered clouds.6 mph51%29.71 "HgN/A
3:30 PM82 °FScattered clouds.3 mph58%29.71 "HgN/A
3:00 PM90 °FPassing clouds.6 mph41%29.74 "HgN/A
2:30 PM86 °FSunny.3 mph46%29.74 "Hg10 mi
2:00 PM88 °FPartly sunny.6 mph40%29.74 "HgN/A
1:30 PM86 °FPartly sunny.7 mph49%29.77 "HgN/A
1:00 PM84 °FScattered clouds.5 mph51%29.77 "HgN/A
12:30 PM86 °FScattered clouds.6 mph49%29.77 "HgN/A
12:00 PM84 °FPassing clouds.5 mph55%29.77 "HgN/A
11:30 AM82 °FPassing clouds.3 mph55%29.77 "HgN/A
11:00 AM82 °FPassing clouds.6 mph58%29.77 "HgN/A
10:30 AM81 °FPassing clouds.6 mph66%29.80 "HgN/A
10:00 AM79 °FPassing clouds.5 mph65%29.80 "HgN/A
9:30 AM77 °FPassing clouds.3 mph69%29.80 "HgN/A
9:00 AM73 °FPassing clouds.3 mph74%29.80 "HgN/A
Weather by CustomWeather, © 2014

See weather overviewHow to use our weather pages